Regional Weather Roundup
Issued by NWS

Home | Current Version | Previous Version | Text Only | Print | Product List | Glossary Off
Versions: 1 2 3 4 5 6 7 8 9 10 11 12 13 14 15 16 17 18 19 20 21 22 23 24 25 26 27 28 29 30 31 32 33 34 35 36 37 38 39 40 41 42 43 44 45 46 47 48 49 50

000
ASUS43 KDMX 011407
RWRIA

WEATHER ROUNDUP FOR IOWA
NATIONAL WEATHER SERVICE DES MOINES IA
900 AM CDT TUE SEP 01 2015

NOTE: "FAIR" INDICATES FEW OR NO CLOUDS BELOW 12,000 FEET WITH NO
SIGNIFICANT WEATHER AND/OR OBSTRUCTIONS TO VISIBILITY.

* - THESE STATIONS ARE NOT NWS STATIONS...THUS NOT UNDER NWS
QUALITY CONTROL.  THEY ALSO DO NOT REPORT WEATHER SUCH
AS PRECIPITATION OR FOG.

IAZ001>003-012>014-020>022-031>034-043>046-011500-
   NORTHWEST IOWA

CITY           SKY/WX    TMP DP  RH WIND       PRES   REMARKS
CARROLL *      SUNNY     73  70  88 SW12G21   29.95S
CHEROKEE *     SUNNY     72  70  94 S7        29.92S
DENISON *      SUNNY     72  68  88 S10       29.93S
LE MARS *      SUNNY     73  68  83 S10       29.91S
ORANGE CITY *  SUNNY     72  68  88 S7        29.91S
SHELDON *      SUNNY     70  68  94 SE6       29.91S
SIOUX CITY     MOSUNNY   71  65  81 SE8       29.89F
SPENCER        SUNNY     71  66  84 S5        29.94R
STORM LAKE *   SUNNY     72  70  94 S9        29.94S
$$

IAZ055>058-069>071-079>083-090>094-011500-
   SOUTHWEST IOWA

CITY           SKY/WX    TMP DP  RH WIND       PRES   REMARKS
ATLANTIC *     MOSUNNY   73  72  94 S8        29.97F
AUDUBON *      SUNNY     73  70  88 S8        29.98S
CLARINDA *     SUNNY     73  72  94 S7        30.00F
COUNCIL BLFS * SUNNY     75  70  83 S9        29.96S
CRESTON *      SUNNY     73  70  88 S10       30.02S
LAMONI         SUNNY     74  70  87 S12       30.02S
RED OAK *      MOSUNNY   73  72  94 S5        29.98S
SHENANDOAH *   SUNNY     75  70  83 S9        29.98S
$$

IAZ047>049-059>061-072>074-084-011500-
   CENTRAL IOWA

CITY           SKY/WX    TMP DP  RH WIND       PRES   REMARKS
AMES           SUNNY     73  70  90 S9        29.97F
ANKENY *       SUNNY     75  72  88 SW7G15    29.98S
CHARITON *     SUNNY     75  70  83 S10       30.01S
DES MOINES     SUNNY     76  69  79 S13       29.97F
GRINNELL*      SUNNY     73  68  83 S8        30.01F
KNOXVILLE *    SUNNY     75  70  83 S9G17     29.99S
MARSHALLTOWN   SUNNY     74  70  87 S13       29.98F
PELLA *        SUNNY     77  72  83 SW9       30.01F
PERRY *          N/A     73  72  94 S6        29.97S
$$

IAZ004>006-015-016-023>025-035-036-011500-
   NORTH CENTRAL IOWA

CITY           SKY/WX    TMP DP  RH WIND       PRES   REMARKS
ALGONA *       SUNNY     70  68  94 S8        29.95S FOG
CLARION *      FOG       72  70  94 S9        29.96S VSB 3/4
ESTHERVILLE    MOSUNNY   68  66  93 S6        29.93F FOG
FORT DODGE *   SUNNY     72  66  83 SE7       29.96S
MASON CITY     SUNNY     70  69  97 S8        29.98S FOG
FOREST CITY *  SUNNY     70  70 100 S6        29.96S FOG
IOWA FALLS *     N/A     72  70  94 S7        29.99S
$$

IAZ007>011-017>019-026>030-037>042-050>054-066-011500-
   NORTHEAST IOWA

CITY           SKY/WX    TMP DP  RH WIND       PRES   REMARKS
CEDAR RAPIDS   SUNNY     74  72  93 S8        30.01S
CHARLES CITY * SUNNY     72  72 100 S9        29.98S
CLINTON *      SUNNY     75  72  88 SW7       30.06S
DECORAH *      SUNNY     73  72  94 VRB6      29.98F
DUBUQUE        SUNNY     74  71  91 S10       30.03F FOG
MONTICELLO *   SUNNY     75  72  88 VRB5      30.01F
OELWEIN *      SUNNY     73  72  94 S9        30.00F
WATERLOO       SUNNY     74  70  87 S8        29.97F
$$

IAZ064-065-067-068-078-011500-
   EAST CENTRAL IOWA

CITY           SKY/WX    TMP DP  RH WIND       PRES   REMARKS
DAVENPORT      SUNNY     78  71  79 SW8       30.04F HX  80
IOWA CITY      SUNNY     75  70  84 S7        30.02F
MT. PLEASANT * SUNNY     79  70  73 S8        30.04F HX  81
MUSCATINE *    MOSUNNY   77  72  83 S6        30.03F
QUAD CITIES    SUNNY     79  71  76 SW8       30.03F HX  82
$$

IAZ062-063-075>077-085>089-095>099-011500-
   SOUTHEAST IOWA

CITY           SKY/WX    TMP DP  RH WIND       PRES   REMARKS
BURLINGTON     SUNNY     76  72  87 SW7       30.05F FOG
FAIRFIELD *    SUNNY     77  70  78 SW8       30.03S
FORT MADISON * SUNNY     75  72  88 SW8       30.06S
KEOKUK *       PTSUNNY   77  72  83 SW9       30.05S
OSKALOOSA *      N/A     75  70  83 SW8       30.02S
CENTERVILLE *  SUNNY     75  72  88 S8        30.05S
OTTUMWA        SUNNY     75  71  87 S12       30.00F
WASHINGTON *     N/A    N/A N/A N/A MISG        N/A
$$

ABBREVIATIONS USED IN REMARKS
   TC - TEMPERATURES IN CELSIUS
  WCI - WIND CHILL INDEX
   HX - HEAT INDEX
  VSB - VISIBILITY
$$



USA.gov is the U.S. government's official web portal to all federal, state and local government web resources and services.